This demonstration page uses our WeatherBlox Daily Observations layout. Learn more.

Left ArrowRight Arrow

44.8408, -93.29828

Hourly Observations for May 28, 2022

Temp ( °F °C ) Dew Point ( °F °C ) Humidity (%) Winds ( mph kmh ) Pressure ( in mb ) Visibility ( mi km ) Precip ( " mm )
12:53 am 00:53 Partly Cloudy 65 18.3 51 10.6 61 61 SSE 10 17 29.79 1009 10 16 0.00 0.00
1:53 am 01:53 Partly Cloudy 65 18.3 52 11.1 63 63 SSE 7 11 29.80 1009 10 16 0.00 0.00
2:53 am 02:53 Cloudy 64 17.8 52 11.1 65 65 SSE 7 11 29.76 1008 10 16 0.00 0.00
3:53 am 03:53 Mostly Cloudy 65 18.3 52 11.1 63 63 S 12 19 29.76 1008 10 16 0.00 0.00
4:53 am 04:53 Cloudy 63 17.2 53 11.7 70 70 SE 12 19 29.70 1006 10 16 0.00 0.00
5:53 am 05:53 Cloudy 63 17.2 53 11.7 70 70 SSE 7 11 29.72 1007 10 16 0.00 0.00
6:05 am 06:05 Cloudy with Nearby Thunderstorms 63 17.2 53 11.7 70 70 SE 6 9 29.72 1006 10 16 0.00 0.00
6:20 am 06:20 Cloudy with Light Rain 62 16.7 53 11.7 73 73 SE 8 13 29.72 1006 10 16 0.01 0.25
6:48 am 06:48 Cloudy with Nearby Thunderstorms 63 17 54 12 73 73 S 13 20 29.72 1006 6 10 0.01 0.25
6:53 am 06:53 Cloudy with Nearby Thunderstorms 62 16.7 53 11.7 73 73 S 8 13 29.72 1007 6 10 0.02 0.51
7:03 am 07:03 Cloudy with Thunderstorms 61 16.1 54 12.2 78 78 SSE 5 7 29.72 1006 5 8 0.00 0.00
7:19 am 07:19 Mostly Cloudy with Light Rain 60 15.6 54 12.2 80 80 SE 7 11 29.71 1006 9 14 0.04 1.02
7:53 am 07:53 Cloudy with Nearby Thunderstorms 62 16.7 54 12.2 75 75 SSE 10 17 29.70 1006 7 11 0.04 1.02
8:00 am 08:00 Cloudy with Thunderstorms 62 16.7 53 11.7 73 73 SSE 12 19 29.69 1005 9 14 0.00 0.00
8:22 am 08:22 Mostly Cloudy 61 16.1 54 12.2 78 78 SE 12 19 29.68 1005 10 16 0.00 0.00
8:53 am 08:53 Mostly Cloudy 63 17.2 55 12.8 76 76 SSE 12 19 29.67 1005 10 16 0.00 0.00
9:53 am 09:53 Partly Cloudy 68 20 52 11.1 57 57 SSE 16 26 29.63 1003 10 16 0.00 0.00
10:53 am 10:53 Mostly Sunny 74 23.3 51 10.6 45 45 S 18 30 29.61 1003 10 16 0.00 0.00
11:53 am 11:53 Partly Cloudy 78 25.6 54 12.2 43 43 S 21 33 29.58 1002 10 16 0.00 0.00
12:53 pm 12:53 Cloudy 79 26.1 56 13.3 45 45 S 15 24 29.57 1001 10 16 0.00 0.00
1:53 pm 13:53 Mostly Cloudy 81 27.2 57 13.9 44 44 SSW 16 26 29.56 1001 10 16 0.00 0.00
2:53 pm 14:53 Mostly Cloudy 82 27.8 58 14.4 44 44 S 20 31 29.54 1001 10 16 0.00 0.00
3:53 pm 15:53 Mostly Cloudy 86 30 59 15 40 40 S 14 22 29.52 1000 10 16 0.00 0.00
4:53 pm 16:53 Mostly Cloudy 88 31.1 58 14.4 36 36 S 9 15 29.50 999 10 16 0.00 0.00
5:53 pm 17:53 Partly Cloudy 88 31.1 59 15 38 38 S 10 17 29.48 998 10 16 0.00 0.00
6:53 pm 18:53 Partly Cloudy 90 32.2 55 12.8 31 31 SSW 7 11 29.47 998 10 16 0.00 0.00
7:53 pm 19:53 Partly Cloudy 88 31.1 55 12.8 33 33 S 7 11 29.47 998 10 16 0.00 0.00
8:53 pm 20:53 Partly Cloudy 81 27.2 59 15 47 47 ESE 10 17 29.48 998 10 16 0.00 0.00
9:53 pm 21:53 Mostly Clear 81 27.2 59 15 47 47 S 15 24 29.50 999 10 16 0.00 0.00
10:53 pm 22:53 Mostly Clear 80 26.7 59 15 49 49 S 14 22 29.52 1000 10 16 0.00 0.00
11:53 pm 23:53 Clear 78 25.6 58 14.4 50 50 S 13 20 29.54 1000 10 16 0.00 0.00

Powered by AerisWeather